QPF
0.00 0.00 0.00 0.00 0.00 0.00 0.00 0.00 0.00 0.00 0.00 0.00 0.00 0.00 0.00 0.00 0.00 0.00 0.00 0.00 0.00 0.00 0.00 0.01 0.01 0.01 0.01 0.01 0.01 0.01 0.01 0.02 0.03 0.03 0.03 0.03 0.03 0.02 0.03 0.03 0.02 0.03 0.05
0.00 0.00 0.00 0.00 0.00 0.00 0.00 0.00 0.00 0.00 0.00 0.00 0.00 0.00 0.00 0.00 0.00 0.00 0.00 0.00 0.00 0.00 0.00 0.01 0.02 0.01 0.01 0.01 0.01 0.01 0.01 0.01 0.02 0.03 0.03 0.04 0.03 0.02 0.02 0.02 0.01 0.02 0.03
0.00 0.00 0.00 0.00 0.00 0.00 0.00 0.00 0.00 0.00 0.00 0.00 0.00 0.00 0.00 0.00 0.00 0.00 0.00 0.00 0.00 0.00 0.00 0.02 0.02 0.01 0.02 0.02 0.01 0.01 0.01 0.01 0.02 0.03 0.03 0.04 0.04 0.02 0.02 0.02 0.01 0.02 0.01
0.00 0.00 0.00 0.00 0.00 0.00 0.00 0.00 0.00 0.00 0.00 0.00 0.00 0.00 0.00 0.00 0.00 0.00 0.00 0.00 0.00 0.00 0.00 0.01 0.02 0.02 0.02 0.01 0.01 0.01 0.01 0.02 0.02 0.03 0.04 0.06 0.04 0.02 0.02 0.03 0.02 0.02 0.02
0.00 0.00 0.00 0.00 0.00 0.00 0.00 0.00 0.00 0.00 0.00 0.00 0.00 0.00 0.00 0.00 0.00 0.00 0.00 0.00 0.00 0.00 0.00 0.01 0.02 0.02 0.02 0.01 0.01 0.02 0.02 0.02 0.03 0.03 0.04 0.06 0.04 0.02 0.03 0.03 0.03 0.04 0.04
0.00 0.00 0.00 0.00 0.00 0.00 0.00 0.00 0.00 0.00 0.00 0.00 0.00 0.00 0.00 0.00 0.00 0.00 0.00 0.00 0.00 0.00 0.00 0.00 0.01 0.01 0.01 0.00 0.01 0.01 0.02 0.02 0.03 0.03 0.03 0.03 0.02 0.03 0.03 0.03 0.02 0.03 0.04
0.00 0.00 0.00 0.00 0.00 0.00 0.00 0.00 0.00 0.00 0.00 0.00 0.00 0.00 0.00 0.00 0.00 0.00 0.00 0.00 0.00 0.00 0.00 0.00 0.00 0.00 0.01 0.01 0.01 0.01 0.01 0.01 0.02 0.02 0.02 0.02 0.02 0.02 0.03 0.02 0.03 0.04 0.05
0.00 0.00 0.00 0.00 0.00 0.00 0.00 0.00 0.00 0.00 0.00 0.00 0.00 0.00 0.00 0.00 0.00 0.00 0.00 0.00 0.00 0.00 0.00 0.00 0.00 0.00 0.00 0.01 0.01 0.01 0.01 0.01 0.02 0.02 0.01 0.02 0.02 0.02 0.03 0.03 0.04 0.05 0.06
0.00 0.00 0.00 0.00 0.00 0.00 0.00 0.00 0.00 0.00 0.00 0.00 0.00 0.00 0.00 0.00 0.00 0.00 0.00 0.00 0.00 0.00 0.00 0.00 0.00 0.00 0.00 0.00 0.01 0.02 0.02 0.01 0.02 0.02 0.02 0.02 0.04 0.04 0.04 0.04 0.03 0.04 0.04
0.00 0.00 0.00 0.00 0.00 0.00 0.00 0.00 0.00 0.00 0.00 0.00 0.00 0.00 0.00 0.00 0.00 0.00 0.00 0.00 0.00 0.00 0.00 0.00 0.00 0.00 0.00 0.00 0.01 0.03 0.02 0.01 0.01 0.01 0.01 0.01 0.01 0.03 0.03 0.04 0.04 0.04 0.03
0.00 0.00 0.00 0.00 0.00 0.00 0.00 0.00 0.00 0.00 0.00 0.00 0.00 0.00 0.00 0.00 0.00 0.00 0.00 0.00 0.00 0.00 0.00 0.00 0.00 0.00 0.00 0.00 0.01 0.02 0.02 0.01 0.01 0.02 0.02 0.02 0.01 0.02 0.02 0.03 0.04 0.05 0.03
0.00 0.00 0.00 0.00 0.00 0.00 0.00 0.00 0.00 0.00 0.00 0.00 0.00 0.00 0.00 0.00 0.00 0.00 0.00 0.00 0.00 0.00 0.00 0.00 0.00 0.00 0.00 0.00 0.01 0.01 0.01 0.02 0.02 0.03 0.02 0.02 0.03 0.03 0.03 0.03 0.03 0.04 0.04
0.00 0.00 0.00 0.00 0.00 0.00 0.00 0.00 0.00 0.00 0.00 0.00 0.00 0.00 0.00 0.00 0.00 0.00 0.00 0.00 0.00 0.00 0.00 0.00 0.00 0.00 0.00 0.00 0.00 0.01 0.01 0.02 0.03 0.03 0.03 0.03 0.03 0.03 0.03 0.03 0.02 0.03 0.04
0.00 0.00 0.00 0.00 0.00 0.00 0.00 0.00 0.00 0.00 0.00 0.00 0.00 0.00 0.00 0.00 0.00 0.00 0.00 0.00 0.00 0.00 0.00 0.00 0.00 0.00 0.00 0.00 0.01 0.01 0.01 0.02 0.03 0.03 0.03 0.03 0.03 0.03 0.03 0.03 0.02 0.03 0.04
0.00 0.00 0.00 0.00 0.00 0.00 0.00 0.00 0.00 0.00 0.00 0.00 0.00 0.00 0.00 0.00 0.00 0.00 0.00 0.00 0.00 0.00 0.00 0.00 0.00 0.00 0.00 0.01 0.01 0.01 0.02 0.03 0.04 0.04 0.04 0.04 0.03 0.03 0.02 0.02 0.02 0.03 0.03
0.00 0.00 0.00 0.00 0.00 0.00 0.00 0.00 0.00 0.00 0.00 0.00 0.00 0.00 0.00 0.00 0.00 0.00 0.00 0.00 0.00 0.00 0.00 0.00 0.00 0.01 0.01 0.02 0.02 0.02 0.02 0.04 0.05 0.06 0.05 0.05 0.03 0.03 0.02 0.01 0.02 0.03 0.03
0.00 0.00 0.00 0.00 0.00 0.00 0.00 0.00 0.00 0.00 0.00 0.00 0.00 0.00 0.00 0.00 0.00 0.00 0.00 0.00 0.00 0.00 0.00 0.00 0.01 0.01 0.01 0.02 0.02 0.02 0.03 0.03 0.04 0.04 0.04 0.04 0.03 0.03 0.03 0.02 0.02 0.03 0.03
0.00 0.00 0.00 0.00 0.00 0.00 0.00 0.00 0.00 0.00 0.00 0.00 0.00 0.00 0.00 0.00 0.00 0.00 0.00 0.00 0.00 0.00 0.01 0.01 0.01 0.01 0.01 0.02 0.02 0.02 0.03 0.04 0.04 0.05 0.04 0.03 0.03 0.03 0.03 0.03 0.02 0.03 0.03
0.00 0.00 0.00 0.00 0.00 0.00 0.00 0.00 0.00 0.00 0.00 0.00 0.00 0.00 0.00 0.00 0.00 0.00 0.00 0.00 0.00 0.01 0.01 0.01 0.01 0.01 0.01 0.02 0.02 0.02 0.03 0.03 0.03 0.04 0.04 0.03 0.03 0.03 0.04 0.04 0.04 0.03 0.02
0.00 0.00 0.00 0.00 0.00 0.00 0.00 0.00 0.00 0.00 0.00 0.00 0.00 0.00 0.00 0.00 0.00 0.00 0.00 0.00 0.01 0.01 0.01 0.01 0.01 0.01 0.01 0.01 0.02 0.02 0.03 0.03 0.03 0.04 0.03 0.03 0.03 0.03 0.04 0.05 0.05 0.04 0.03
0.00 0.00 0.00 0.00 0.00 0.00 0.00 0.00 0.00 0.00 0.00 0.00 0.00 0.00 0.00 0.00 0.00 0.00 0.00 0.01 0.01 0.01 0.01 0.01 0.01 0.01 0.01 0.01 0.02 0.03 0.03 0.03 0.04 0.04 0.03 0.03 0.03 0.03 0.03 0.04 0.04 0.04 0.04
0.00 0.00 0.00 0.00 0.00 0.00 0.00 0.00 0.00 0.00 0.00 0.00 0.00 0.00 0.00 0.00 0.00 0.00 0.00 0.00 0.00 0.00 0.01 0.01 0.01 0.01 0.01 0.02 0.02 0.03 0.03 0.04 0.04 0.04 0.03 0.03 0.04 0.03 0.03 0.04 0.04 0.04 0.04
0.00 0.00 0.00 0.00 0.00 0.00 0.00 0.00 0.00 0.00 0.00 0.00 0.00 0.00 0.00 0.00 0.00 0.00 0.00 0.00 0.00 0.01 0.01 0.01 0.01 0.01 0.01 0.01 0.01 0.02 0.03 0.04 0.03 0.03 0.03 0.03 0.04 0.04 0.04 0.04 0.04 0.05 0.04
0.00 0.00 0.00 0.00 0.00 0.00 0.00 0.00 0.00 0.00 0.01 0.01 0.01 0.01 0.00 0.00 0.00 0.00 0.01 0.00 0.00 0.01 0.01 0.01 0.01 0.01 0.01 0.01 0.01 0.02 0.02 0.03 0.02 0.02 0.03 0.04 0.04 0.04 0.04 0.04 0.04 0.04 0.05
0.00 0.00 0.00 0.00 0.00 0.00 0.00 0.00 0.00 0.00 0.01 0.01 0.01 0.01 0.01 0.01 0.01 0.01 0.00 0.00 0.01 0.01 0.01 0.01 0.01 0.01 0.01 0.01 0.01 0.02 0.02 0.02 0.02 0.02 0.03 0.04 0.04 0.04 0.04 0.04 0.04 0.04 0.05
0.00 0.00 0.00 0.00 0.00 0.00 0.00 0.00 0.00 0.00 0.01 0.01 0.01 0.01 0.01 0.01 0.01 0.01 0.01 0.01 0.01 0.01 0.01 0.01 0.01 0.01 0.02 0.02 0.01 0.01 0.02 0.01 0.01 0.01 0.02 0.03 0.04 0.04 0.03 0.04 0.04 0.05 0.05
MSLP
1017.24 1017.62 1018.10 1018.61 1019.11 1019.54 1019.89 1020.12 1020.27 1020.36 1020.43 1020.50 1020.61 1020.75 1020.93 1021.12 1021.29 1021.44 1021.55 1021.61 1021.64 1021.66 1021.69 1021.73 1021.81 1021.92 1022.03 1022.14 1022.20 1022.21 1022.13 1021.96 1021.70 1021.35 1020.94 1020.48 1020.01 1019.54 1019.10 1018.72 1018.39 1018.13 1017.94
1017.20 1017.59 1018.06 1018.57 1019.06 1019.49 1019.83 1020.07 1020.22 1020.31 1020.37 1020.44 1020.55 1020.70 1020.88 1021.09 1021.29 1021.47 1021.61 1021.71 1021.78 1021.82 1021.85 1021.90 1021.98 1022.08 1022.21 1022.33 1022.43 1022.49 1022.48 1022.39 1022.21 1021.95 1021.62 1021.23 1020.80 1020.37 1019.94 1019.54 1019.18 1018.87 1018.61
1017.08 1017.50 1017.98 1018.50 1018.99 1019.42 1019.77 1020.01 1020.16 1020.26 1020.32 1020.40 1020.50 1020.65 1020.84 1021.06 1021.28 1021.48 1021.65 1021.78 1021.86 1021.91 1021.96 1022.01 1022.08 1022.18 1022.31 1022.44 1022.57 1022.67 1022.72 1022.70 1022.61 1022.44 1022.20 1021.89 1021.54 1021.17 1020.78 1020.40 1020.03 1019.68 1019.37
1016.87 1017.34 1017.85 1018.39 1018.89 1019.33 1019.68 1019.94 1020.10 1020.21 1020.29 1020.37 1020.48 1020.64 1020.84 1021.06 1021.29 1021.50 1021.68 1021.81 1021.91 1021.97 1022.01 1022.06 1022.12 1022.22 1022.34 1022.48 1022.62 1022.75 1022.85 1022.89 1022.88 1022.79 1022.63 1022.41 1022.15 1021.84 1021.50 1021.15 1020.80 1020.44 1020.10
1016.57 1017.09 1017.65 1018.21 1018.73 1019.18 1019.54 1019.81 1019.99 1020.12 1020.23 1020.34 1020.47 1020.64 1020.84 1021.07 1021.30 1021.51 1021.68 1021.82 1021.91 1021.96 1022.00 1022.04 1022.09 1022.18 1022.29 1022.43 1022.58 1022.73 1022.86 1022.95 1022.98 1022.96 1022.87 1022.73 1022.53 1022.29 1022.01 1021.70 1021.38 1021.03 1020.67
1016.17 1016.75 1017.35 1017.93 1018.46 1018.92 1019.29 1019.58 1019.79 1019.96 1020.10 1020.24 1020.41 1020.60 1020.82 1021.05 1021.27 1021.47 1021.64 1021.76 1021.83 1021.88 1021.90 1021.93 1021.98 1022.06 1022.16 1022.30 1022.45 1022.60 1022.74 1022.85 1022.92 1022.94 1022.90 1022.80 1022.66 1022.47 1022.24 1021.98 1021.68 1021.36 1021.00
1015.67 1016.30 1016.92 1017.51 1018.04 1018.51 1018.89 1019.21 1019.46 1019.66 1019.85 1020.04 1020.25 1020.47 1020.70 1020.94 1021.15 1021.34 1021.49 1021.59 1021.65 1021.68 1021.70 1021.72 1021.76 1021.84 1021.94 1022.07 1022.22 1022.37 1022.51 1022.63 1022.70 1022.73 1022.71 1022.64 1022.53 1022.38 1022.19 1021.96 1021.70 1021.41 1021.08
1015.05 1015.70 1016.33 1016.92 1017.46 1017.92 1018.32 1018.66 1018.95 1019.21 1019.45 1019.69 1019.94 1020.20 1020.45 1020.69 1020.90 1021.07 1021.20 1021.28 1021.33 1021.35 1021.37 1021.39 1021.44 1021.51 1021.62 1021.75 1021.90 1022.04 1022.17 1022.27 1022.34 1022.36 1022.34 1022.27 1022.17 1022.03 1021.87 1021.67 1021.45 1021.20 1020.91
1014.31 1014.97 1015.59 1016.18 1016.70 1017.17 1017.59 1017.95 1018.28 1018.59 1018.89 1019.18 1019.47 1019.76 1020.03 1020.27 1020.48 1020.64 1020.75 1020.82 1020.86 1020.89 1020.91 1020.95 1021.01 1021.10 1021.21 1021.35 1021.50 1021.63 1021.74 1021.82 1021.86 1021.86 1021.81 1021.73 1021.62 1021.49 1021.34 1021.18 1020.99 1020.78 1020.54
1013.46 1014.11 1014.72 1015.29 1015.81 1016.28 1016.71 1017.11 1017.48 1017.84 1018.19 1018.52 1018.85 1019.16 1019.45 1019.69 1019.89 1020.04 1020.15 1020.22 1020.26 1020.30 1020.34 1020.40 1020.49 1020.60 1020.74 1020.88 1021.02 1021.15 1021.23 1021.28 1021.29 1021.25 1021.17 1021.07 1020.95 1020.82 1020.68 1020.54 1020.39 1020.23 1020.05
1012.52 1013.14 1013.74 1014.29 1014.82 1015.30 1015.75 1016.18 1016.59 1016.99 1017.38 1017.75 1018.11 1018.43 1018.72 1018.97 1019.16 1019.31 1019.41 1019.49 1019.56 1019.62 1019.69 1019.79 1019.91 1020.05 1020.20 1020.35 1020.49 1020.59 1020.65 1020.66 1020.62 1020.55 1020.43 1020.30 1020.17 1020.04 1019.91 1019.80 1019.70 1019.59 1019.46
1011.52 1012.11 1012.69 1013.24 1013.77 1014.27 1014.74 1015.21 1015.65 1016.09 1016.51 1016.90 1017.27 1017.60 1017.88 1018.12 1018.31 1018.46 1018.58 1018.68 1018.77 1018.87 1018.99 1019.12 1019.28 1019.45 1019.61 1019.76 1019.88 1019.95 1019.98 1019.94 1019.86 1019.74 1019.60 1019.45 1019.30 1019.17 1019.07 1018.99 1018.93 1018.87 1018.80
1010.50 1011.06 1011.62 1012.17 1012.70 1013.22 1013.72 1014.22 1014.69 1015.15 1015.58 1015.99 1016.35 1016.68 1016.95 1017.19 1017.38 1017.54 1017.68 1017.81 1017.94 1018.08 1018.24 1018.42 1018.60 1018.78 1018.95 1019.09 1019.18 1019.22 1019.20 1019.12 1018.99 1018.84 1018.66 1018.50 1018.35 1018.23 1018.15 1018.11 1018.09 1018.09 1018.07
1009.49 1010.02 1010.55 1011.09 1011.63 1012.17 1012.69 1013.21 1013.70 1014.17 1014.60 1015.00 1015.36 1015.67 1015.94 1016.17 1016.36 1016.54 1016.71 1016.88 1017.06 1017.25 1017.45 1017.66 1017.87 1018.06 1018.21 1018.32 1018.37 1018.36 1018.29 1018.17 1018.00 1017.82 1017.63 1017.45 1017.32 1017.22 1017.17 1017.17 1017.20 1017.24 1017.27
1008.52 1009.00 1009.51 1010.03 1010.57 1011.11 1011.64 1012.16 1012.65 1013.12 1013.54 1013.93 1014.26 1014.56 1014.82 1015.05 1015.27 1015.47 1015.68 1015.89 1016.12 1016.36 1016.60 1016.83 1017.05 1017.23 1017.36 1017.44 1017.44 1017.38 1017.26 1017.09 1016.90 1016.69 1016.50 1016.34 1016.22 1016.16 1016.15 1016.19 1016.26 1016.33 1016.40
1007.61 1008.03 1008.49 1008.98 1009.49 1010.01 1010.53 1011.03 1011.51 1011.96 1012.36 1012.72 1013.05 1013.33 1013.59 1013.84 1014.07 1014.32 1014.57 1014.83 1015.11 1015.39 1015.66 1015.91 1016.12 1016.28 1016.39 1016.41 1016.37 1016.27 1016.11 1015.91 1015.70 1015.50 1015.32 1015.18 1015.10 1015.08 1015.11 1015.19 1015.29 1015.40 1015.49
1006.76 1007.09 1007.48 1007.91 1008.38 1008.86 1009.34 1009.81 1010.25 1010.67 1011.05 1011.39 1011.70 1011.98 1012.25 1012.51 1012.79 1013.07 1013.37 1013.69 1014.01 1014.32 1014.61 1014.87 1015.07 1015.21 1015.27 1015.26 1015.18 1015.04 1014.86 1014.66 1014.46 1014.27 1014.13 1014.04 1014.00 1014.03 1014.10 1014.21 1014.34 1014.46 1014.55
1005.95 1006.19 1006.49 1006.84 1007.23 1007.64 1008.07 1008.48 1008.88 1009.26 1009.61 1009.93 1010.23 1010.52 1010.81 1011.10 1011.42 1011.75 1012.10 1012.46 1012.82 1013.15 1013.46 1013.71 1013.89 1014.00 1014.04 1014.00 1013.89 1013.74 1013.56 1013.38 1013.21 1013.07 1012.98 1012.94 1012.96 1013.03 1013.14 1013.28 1013.41 1013.53 1013.62
1005.21 1005.33 1005.52 1005.77 1006.07 1006.40 1006.75 1007.10 1007.44 1007.78 1008.09 1008.40 1008.70 1009.00 1009.31 1009.65 1010.00 1010.38 1010.77 1011.17 1011.55 1011.90 1012.20 1012.44 1012.61 1012.69 1012.71 1012.65 1012.54 1012.40 1012.25 1012.11 1011.99 1011.92 1011.89 1011.92 1011.99 1012.11 1012.24 1012.39 1012.52 1012.62 1012.68
1004.54 1004.55 1004.62 1004.76 1004.96 1005.19 1005.45 1005.73 1006.02 1006.30 1006.59 1006.88 1007.18 1007.50 1007.84 1008.21 1008.61 1009.02 1009.44 1009.86 1010.25 1010.60 1010.89 1011.11 1011.25 1011.32 1011.31 1011.26 1011.16 1011.05 1010.95 1010.87 1010.82 1010.82 1010.87 1010.96 1011.09 1011.23 1011.38 1011.52 1011.63 1011.70 1011.72
1003.99 1003.88 1003.85 1003.88 1003.97 1004.11 1004.28 1004.48 1004.71 1004.95 1005.21 1005.48 1005.79 1006.12 1006.48 1006.88 1007.29 1007.73 1008.16 1008.58 1008.96 1009.29 1009.55 1009.75 1009.87 1009.92 1009.91 1009.87 1009.80 1009.74 1009.70 1009.68 1009.72 1009.79 1009.90 1010.05 1010.21 1010.37 1010.51 1010.62 1010.69 1010.72 1010.69
1003.61 1003.41 1003.27 1003.20 1003.20 1003.24 1003.33 1003.46 1003.62 1003.82 1004.05 1004.31 1004.60 1004.94 1005.31 1005.71 1006.13 1006.56 1006.98 1007.38 1007.73 1008.03 1008.26 1008.42 1008.52 1008.56 1008.55 1008.52 1008.50 1008.48 1008.50 1008.55 1008.65 1008.79 1008.95 1009.13 1009.30 1009.46 1009.57 1009.65 1009.67 1009.64 1009.57
1003.46 1003.18 1002.97 1002.81 1002.72 1002.68 1002.69 1002.75 1002.86 1003.00 1003.19 1003.43 1003.71 1004.03 1004.39 1004.77 1005.17 1005.58 1005.96 1006.32 1006.63 1006.88 1007.06 1007.19 1007.25 1007.28 1007.28 1007.27 1007.27 1007.30 1007.37 1007.48 1007.62 1007.80 1007.98 1008.17 1008.33 1008.46 1008.54 1008.56 1008.53 1008.45 1008.33
1003.57 1003.24 1002.96 1002.74 1002.57 1002.46 1002.40 1002.39 1002.44 1002.53 1002.68 1002.87 1003.12 1003.41 1003.73 1004.08 1004.44 1004.79 1005.13 1005.42 1005.67 1005.86 1006.00 1006.08 1006.12 1006.13 1006.13 1006.13 1006.16 1006.22 1006.32 1006.45 1006.62 1006.80 1006.98 1007.15 1007.28 1007.36 1007.39 1007.36 1007.27 1007.15 1006.99
1003.93 1003.56 1003.23 1002.95 1002.73 1002.55 1002.43 1002.36 1002.34 1002.38 1002.47 1002.62 1002.81 1003.05 1003.32 1003.62 1003.91 1004.20 1004.47 1004.70 1004.88 1005.01 1005.09 1005.13 1005.14 1005.13 1005.12 1005.13 1005.16 1005.23 1005.33 1005.47 1005.63 1005.79 1005.94 1006.07 1006.15 1006.17 1006.15 1006.06 1005.94 1005.78 1005.60
1004.48 1004.08 1003.72 1003.40 1003.12 1002.89 1002.71 1002.57 1002.50 1002.48 1002.51 1002.60 1002.73 1002.91 1003.12 1003.34 1003.57 1003.78 1003.97 1004.12 1004.23 1004.30 1004.33 1004.32 1004.29 1004.26 1004.24 1004.23 1004.26 1004.32 1004.41 1004.52 1004.64 1004.77 1004.87 1004.94 1004.96 1004.93 1004.85 1004.73 1004.57 1004.40 1004.23
Thickness
5728 5727 5724 5721 5720 5718 5715 5713 5711 5709 5707 5705 5703 5701 5698 5696 5693 5690 5687 5685 5682 5679 5677 5675 5672 5671 5669 5669 5668 5668 5666 5666 5663 5667 5673 5677 5680 5682 5685 5687 5689 5691 5693
5726 5723 5720 5718 5716 5714 5711 5710 5708 5706 5704 5702 5700 5697 5694 5692 5689 5686 5683 5680 5677 5674 5672 5670 5668 5667 5664 5663 5662 5661 5661 5662 5661 5661 5666 5670 5673 5676 5679 5681 5684 5686 5688
5722 5719 5717 5715 5712 5710 5708 5706 5703 5701 5699 5697 5694 5692 5689 5686 5684 5681 5678 5675 5673 5670 5668 5665 5663 5661 5658 5657 5656 5655 5656 5658 5658 5658 5660 5664 5667 5671 5672 5674 5677 5679 5682
5719 5716 5713 5711 5709 5706 5704 5701 5698 5696 5693 5691 5689 5686 5684 5681 5678 5675 5672 5669 5668 5666 5664 5662 5659 5657 5654 5652 5652 5650 5651 5651 5652 5653 5654 5657 5660 5664 5664 5664 5667 5670 5674
5716 5712 5709 5708 5705 5702 5699 5696 5693 5690 5688 5685 5683 5680 5678 5675 5671 5667 5664 5664 5662 5660 5659 5658 5656 5654 5652 5650 5648 5646 5645 5645 5645 5646 5647 5650 5651 5653 5654 5657 5657 5661 5665
5713 5709 5706 5704 5700 5697 5693 5691 5687 5684 5682 5679 5676 5673 5670 5668 5664 5661 5658 5656 5655 5654 5653 5652 5651 5649 5647 5646 5645 5644 5642 5641 5640 5640 5640 5640 5642 5644 5647 5648 5648 5649 5652
5710 5706 5702 5699 5694 5691 5689 5685 5681 5678 5675 5672 5669 5667 5663 5660 5658 5655 5653 5650 5649 5648 5647 5645 5645 5644 5640 5639 5639 5639 5638 5638 5638 5636 5634 5634 5635 5637 5637 5638 5638 5639 5641
5708 5703 5699 5694 5690 5686 5682 5678 5675 5672 5669 5666 5663 5660 5657 5654 5652 5649 5647 5645 5643 5642 5641 5639 5637 5635 5633 5631 5631 5631 5631 5631 5631 5630 5629 5629 5630 5630 5629 5630 5630 5631 5633
5704 5700 5696 5691 5685 5681 5676 5673 5670 5667 5663 5660 5657 5654 5651 5648 5646 5643 5640 5637 5636 5635 5634 5632 5629 5626 5625 5624 5623 5622 5622 5622 5623 5623 5623 5622 5622 5622 5622 5620 5619 5618 5619
5702 5697 5693 5688 5682 5677 5673 5669 5665 5661 5658 5655 5652 5649 5646 5643 5640 5637 5633 5630 5628 5627 5626 5624 5622 5619 5617 5614 5612 5611 5610 5611 5612 5612 5612 5613 5613 5613 5612 5611 5609 5606 5607
5700 5694 5689 5684 5679 5674 5669 5664 5660 5656 5652 5649 5646 5644 5641 5638 5634 5630 5626 5622 5619 5618 5616 5614 5612 5610 5608 5606 5604 5602 5601 5601 5602 5601 5601 5601 5602 5601 5601 5600 5599 5597 5596
5695 5689 5684 5679 5675 5670 5664 5659 5655 5650 5645 5642 5639 5637 5634 5631 5627 5623 5619 5616 5612 5608 5606 5604 5603 5601 5599 5597 5595 5594 5593 5593 5591 5590 5590 5589 5589 5588 5589 5588 5588 5587 5586
5688 5682 5678 5674 5669 5665 5659 5653 5648 5644 5639 5636 5632 5629 5626 5624 5620 5617 5612 5609 5605 5601 5598 5596 5594 5592 5589 5588 5587 5586 5584 5582 5580 5579 5578 5578 5578 5578 5577 5576 5575 5575 5574
5681 5676 5672 5667 5663 5658 5653 5649 5643 5638 5634 5630 5626 5622 5619 5616 5612 5608 5604 5600 5597 5593 5590 5588 5586 5583 5581 5579 5578 5577 5575 5573 5571 5570 5569 5568 5567 5566 5564 5563 5561 5561 5560
5675 5670 5666 5661 5657 5652 5647 5642 5638 5634 5629 5624 5620 5616 5611 5607 5604 5601 5595 5591 5587 5584 5580 5578 5576 5573 5571 5569 5568 5567 5566 5564 5562 5560 5559 5557 5556 5553 5552 5551 5549 5547 5546
5667 5663 5658 5654 5649 5644 5639 5635 5632 5628 5624 5620 5616 5610 5606 5602 5597 5593 5588 5584 5580 5575 5570 5567 5565 5563 5561 5559 5557 5556 5555 5553 5552 5550 5549 5546 5544 5542 5540 5539 5537 5535 5534
5659 5655 5651 5646 5641 5636 5631 5626 5622 5619 5615 5612 5607 5603 5598 5594 5589 5584 5579 5575 5570 5565 5559 5557 5555 5553 5551 5549 5547 5545 5544 5543 5541 5540 5538 5535 5533 5530 5528 5527 5525 5524 5523
5652 5648 5643 5637 5633 5628 5623 5619 5614 5610 5605 5602 5599 5594 5589 5584 5579 5574 5569 5563 5558 5554 5550 5548 5546 5544 5542 5539 5537 5535 5534 5532 5531 5529 5527 5525 5522 5519 5517 5515 5514 5513 5512
5641 5637 5633 5629 5624 5620 5615 5610 5606 5602 5597 5594 5590 5586 5581 5575 5570 5564 5558 5552 5549 5546 5543 5540 5537 5535 5532 5529 5527 5525 5523 5521 5520 5518 5516 5514 5512 5509 5507 5505 5504 5503 5501
5629 5627 5622 5617 5613 5609 5605 5600 5596 5591 5587 5584 5580 5576 5571 5564 5558 5553 5548 5543 5540 5537 5534 5531 5528 5525 5522 5519 5516 5514 5512 5510 5508 5507 5505 5504 5502 5499 5497 5495 5493 5492 5491
5617 5613 5611 5606 5601 5598 5593 5589 5585 5580 5577 5573 5570 5566 5560 5553 5549 5545 5540 5535 5531 5528 5525 5521 5518 5515 5512 5509 5506 5503 5502 5500 5497 5496 5495 5494 5492 5489 5487 5485 5483 5482 5480
5603 5599 5596 5593 5589 5586 5582 5578 5573 5569 5565 5562 5558 5554 5549 5543 5538 5534 5530 5526 5523 5519 5515 5512 5508 5505 5502 5498 5495 5493 5490 5488 5487 5486 5485 5483 5481 5479 5477 5475 5473 5471 5470
5589 5586 5582 5579 5576 5573 5569 5565 5561 5557 5553 5549 5545 5541 5536 5531 5526 5522 5519 5515 5512 5508 5505 5501 5498 5495 5492 5488 5485 5482 5479 5478 5477 5475 5473 5472 5470 5468 5466 5464 5462 5461 5460
5574 5570 5567 5564 5561 5558 5554 5550 5547 5543 5539 5535 5532 5528 5523 5519 5515 5511 5507 5504 5500 5497 5493 5490 5487 5484 5481 5478 5476 5473 5470 5468 5466 5465 5463 5461 5460 5458 5457 5455 5453 5452 5452
5558 5555 5552 5549 5545 5542 5538 5535 5531 5528 5524 5520 5517 5513 5510 5506 5502 5498 5494 5490 5487 5484 5481 5478 5475 5473 5470 5468 5465 5463 5461 5459 5456 5454 5453 5451 5450 5449 5448 5447 5446 5445 5444
5542 5540 5537 5534 5530 5526 5522 5519 5515 5512 5508 5504 5500 5496 5493 5489 5486 5483 5479 5476 5473 5470 5468 5466 5463 5461 5459 5457 5456 5454 5451 5449 5447 5445 5443 5442 5441 5440 5439 5439 5439 5438 5438